This demonstration page uses our WeatherBlox Daily Observations layout. Learn more.

Left ArrowRight Arrow

Hourly Observations for August 20, 2017

Temp ( °F °C ) Dew Point ( °F °C ) Humidity (%) Winds ( mph kmh ) Pressure ( in mb ) Visibility ( mi km ) Precip ( " mm )
12:52 am 00:52 Clear 79 26.1 74 23.3 85 85 S 9 15 29.95 1014 10 16 0.00 0.00
1:52 am 01:52 Clear 77 25 75 23.9 94 94 S 7 11 29.94 1014 10 16 0.00 0.00
2:52 am 02:52 Clear 76 24.4 75 23.9 97 97 S 8 13 29.93 1013 10 16 0.00 0.00
3:52 am 03:52 Clear 75 23.9 74 23.3 96 96 S 5 7 29.94 1014 10 16 0.00 0.00
4:52 am 04:52 Clear 75 23.9 74 23.3 96 96 S 6 9 29.96 1014 10 16 0.00 0.00
5:52 am 05:52 Clear 75 23.9 74 23.3 96 96 SSE 10 17 29.93 1014 10 16 0.00 0.00
6:31 am 06:31 Partly Cloudy 75 23.9 74 23.3 96 96 SSE 9 15 29.94 1014 10 16 0.00 0.00
6:52 am 06:52 Mostly Sunny 75 23.9 74 23.3 96 96 S 6 9 29.96 1014 10 16 0.00 0.00
7:52 am 07:52 Sunny 77 25 75 23.9 94 94 SSE 7 11 30.00 1016 10 16 0.00 0.00
8:52 am 08:52 Mostly Cloudy 79 26.1 75 23.9 88 88 S 9 15 30.02 1017 10 16 0.00 0.00
9:52 am 09:52 Sunny 83 28.3 76 24.4 79 79 SW 12 19 30.01 1016 10 16 0.00 0.00
10:52 am 10:52 Sunny 87 30.6 76 24.4 70 70 W 8 13 30.02 1017 10 16 0.00 0.00
11:52 am 11:52 Mostly Cloudy 83 28.3 70 21.1 65 65 E 15 24 30.03 1017 10 16 0.00 0.00
12:01 pm 12:01 Mostly Cloudy 83 28.3 70 21.1 65 65 E 13 20 30.03 1017 10 16 0.00 0.00
12:52 pm 12:52 Sunny 86 30 72 22.2 63 63 E 9 15 30.01 1016 10 16 0.00 0.00
1:52 pm 13:52 Sunny 88 31.1 74 23.3 63 63 SE 8 13 29.98 1015 10 16 0.00 0.00
2:52 pm 14:52 Sunny 89 31.7 75 23.9 63 63 VRB 3 6 29.97 1015 10 16 0.00 0.00
3:52 pm 15:52 Sunny 91 32.8 76 24.4 61 61 VRB 7 11 29.96 1015 10 16 0.00 0.00
4:52 pm 16:52 Partly Cloudy 90 32.2 76 24.4 63 63 ESE 10 17 29.98 1015 10 16 0.00 0.00
5:52 pm 17:52 Partly Cloudy 88 31.1 76 24.4 68 68 SE 8 13 29.98 1015 10 16 0.00 0.00
6:52 pm 18:52 Sunny with Nearby Thunderstorms 88 31.1 76 24.4 68 68 SE 9 15 29.98 1015 10 16 0.00 0.00
7:52 pm 19:52 Cloudy with Nearby Thunderstorms 75 23.9 69 20.6 82 82 NNE 21 33 30.03 1017 10 16 0.00 0.00
8:04 pm 20:04 Cloudy with Nearby Thunderstorms 74 23.3 69 20.6 85 85 N 14 22 30.06 1018 10 16 0.00 0.00
8:11 pm 20:11 Cloudy with Thunderstorms 74 23.3 69 20.6 85 85 NW 10 17 30.06 1018 10 16 0.00 0.00
8:37 pm 20:37 Cloudy with Strong Thunderstorms 71 21.7 67 19.4 87 87 NNW 31 50 30.12 1020 2 3 0.06 1.52
8:48 pm 20:48 Cloudy with Strong Thunderstorms 70 21 68 20 94 94 NNW 23 37 30.12 1020 1 2 0.44 11.18
8:52 pm 20:52 Cloudy with Strong Thunderstorms 70 21.1 68 20 93 93 N 21 33 30.12 1020 1 2 0.57 14.48
9:06 pm 21:06 Cloudy with Strong Thunderstorms 69 20.6 68 20 96 96 ENE 23 37 30.09 1019 2 3 0.37 9.40
9:10 pm 21:10 Cloudy with Nearby Thunderstorms 69 20.6 68 20 96 96 E 23 37 30.09 1019 3 5 0.39 9.91
9:23 pm 21:23 Mostly Cloudy with Nearby Thunderstorms 73 22.8 67 19.4 81 81 E 14 22 30.09 1019 10 16 0.39 9.91
9:52 pm 21:52 Mostly Cloudy with Rain 73 22.8 69 20.6 87 87 E 9 15 30.06 1018 4 6 0.44 11.18
10:52 pm 22:52 Clear 70 21.1 69 20.6 97 97 E 5 7 30.05 1018 10 16 0.00 0.03
11:52 pm 23:52 Clear 71 21.7 70 21.1 96 96 S 6 9 30.05 1018 10 16 0.00 0.00

Powered by AerisWeather